Location: Devore Heights
(34.2372°N, 117.4156°W)
Time: 23:12:51
(UTC+00:00)

Transit 4A - Pass Details

Date: 14 September 2024
Orbit: 864 x 978 km, 66.8° (Epoch: 13 October)

Event Time Altitude Azimuth Distance (km) Brightness Sun altitude
Rises 11:27:09 0° 234° (SW) 3,439 - -25.9°
Reaches altitude 10° 11:29:54 10° 245° (WSW) 2,512 - -25.4°
Maximum altitude 11:34:57 30° 305° (NW) 1,526 - -24.4°
Exits shadow 11:35:21 30° 313° (NW) 1,536 8.8 -24.3°
Drops below altitude 10° 11:40:07 10° 6° (N) 2,573 10.5 -23.4°
Sets 11:42:59 0° 17° (NNE) 3,535 11.5 -22.9°
